Weather History for Moosonee, ON

Change the Weather History Date:

Sunday, April 6, 2014

  Actual Average Record
Temperature  
Mean Temperature 24 °F -  
Max Temperature 42 °F 30 °F 55 °F (1997)
Min Temperature 6 °F 11 °F -14 °F (2003)
Degree Days  
Heating Degree Days 41    
Moisture  
Dew Point 18 °F    
Average Humidity 66    
Maximum Humidity 86    
Minimum Humidity 36    
Precipitation  
Precipitation 0.00 in - - ()
Sea Level Pressure  
Sea Level Pressure 29.82 in    
Wind  
Wind Speed 7 mph ()    
Max Wind Speed 13 mph    
Max Gust Speed -    
Visibility 9.0 miles    
Events      
Averages and records for this station are not official NWS values.
T = Trace of Precipitation, MM = Missing Value Source: Averaged Metar Reports

Daily Weather History Graph

Daily Weather History Graph

Search for Another Location

Airport:

Trip Planner

Search our weather history database for the weather conditions in past years. The results will help you decide how hot, cold, wet, or windy it might be!

Date:

Astronomy

Apr. 06, 2014 Rise Set
Actual Time 6:46 AM EDT 8:03 PM EDT
Civil Twilight 6:12 AM EDT 8:38 PM EDT
Nautical Twilight 5:31 AM EDT 9:20 PM EDT
Astronomical Twilight 4:46 AM EDT 10:05 PM EDT
Moon 11:24 AM EDT (4/6) 2:21 AM EDT (4/6)
Length of Visible Light 14h 25m
Length of Day
13h 17m
Waxing Crescent, 43% of the Moon is Illuminated
Apr 6
Waxing Crescent
Apr 7
First Quarter
Apr 15
Full
Apr 22
Last Quarter
Apr 29
New

Hourly Weather History & Observations

Time (EDT) Temp. Windchill Dew Point Humidity Pressure Visibility Wind Dir Wind Speed Gust Speed Precip Events Conditions
12:00 AM 14.0 °F 5.1 °F 8.6 °F 79% 29.86 in 9.0 mi WSW 5.8 mph - N/A   Clear
1:00 AM 12.2 °F 6.1 °F 6.8 °F 79% 29.85 in 9.0 mi WSW 3.5 mph - N/A   Clear
2:00 AM 10.4 °F -0.4 °F 5.0 °F 79% 29.84 in 9.0 mi SW 6.9 mph - N/A   Clear
3:00 AM 10.4 °F -3.3 °F 5.0 °F 79% 29.83 in 9.0 mi SSW 10.4 mph - N/A   Clear
4:00 AM 6.8 °F -3.5 °F 1.4 °F 79% 29.81 in 9.0 mi South 5.8 mph - N/A   Clear
4:12 AM 6.8 °F -3.5 °F 3.2 °F 85% 29.81 in 9.0 mi SSE 5.8 mph - N/A   Mostly Cloudy
5:00 AM 12.2 °F -0.2 °F 6.8 °F 79% 29.81 in 9.0 mi SSW 9.2 mph - N/A   Overcast
6:00 AM 15.8 °F 5.1 °F 10.4 °F 79% 29.78 in 9.0 mi SSW 8.1 mph - N/A   Overcast
7:00 AM 17.6 °F 9.3 °F 14.0 °F 86% 29.77 in 9.0 mi SSW 5.8 mph - N/A   Overcast
8:00 AM 19.4 °F 8.6 °F 15.8 °F 86% 29.78 in 9.0 mi SSW 9.2 mph - N/A   Overcast
8:36 AM 23.0 °F 12.4 °F 17.6 °F 80% 29.78 in 9.0 mi SW 10.4 mph - N/A   Scattered Clouds
9:00 AM 24.8 °F 14.6 °F 19.4 °F 80% 29.77 in 9.0 mi SSW 10.4 mph - N/A   Partly Cloudy
9:08 AM 24.8 °F 14.0 °F 19.4 °F 80% 29.77 in 9.0 mi SW 11.5 mph - N/A   Mostly Cloudy
9:11 AM 24.8 °F 13.4 °F 19.4 °F 80% 29.77 in 9.0 mi SW 12.7 mph - N/A   Scattered Clouds
9:16 AM 26.6 °F 15.7 °F 21.2 °F 80% 29.77 in 9.0 mi SSW 12.7 mph - N/A   Mostly Cloudy
9:53 AM 30.2 °F 20.8 °F 23.0 °F 75% 29.77 in 9.0 mi SW 11.5 mph - N/A   Scattered Clouds
10:00 AM 30.2 °F 21.3 °F 23.0 °F 75% 29.77 in 9.0 mi SW 10.4 mph - N/A   Partly Cloudy
11:00 AM 35.6 °F 28.6 °F 24.8 °F 65% 29.77 in 9.0 mi WSW 9.2 mph - N/A   Partly Cloudy
12:00 PM 39.2 °F 32.5 °F 26.6 °F 61% 29.76 in 9.0 mi SSW 10.4 mph - N/A   Clear
12:25 PM 39.2 °F - 28.4 °F 65% 29.77 in 9.0 mi North - - N/A   Mostly Cloudy
12:58 PM 42.8 °F - 26.6 °F 53% 29.77 in 9.0 mi North - - N/A   Scattered Clouds
1:00 PM 41.0 °F - 26.6 °F 57% 29.77 in 9.0 mi North - - N/A   Scattered Clouds
1:07 PM 42.8 °F - 26.6 °F 53% 29.78 in 9.0 mi North - - N/A   Mostly Cloudy
1:52 PM 41.0 °F - 28.4 °F 61% 29.79 in 9.0 mi North - - N/A   Scattered Clouds
2:00 PM 41.0 °F - 26.6 °F 57% 29.79 in 9.0 mi North - - N/A   Scattered Clouds
2:36 PM 42.8 °F - 23.0 °F 46% 29.81 in 9.0 mi North - - N/A   Mostly Cloudy
2:42 PM 41.0 °F - 23.0 °F 49% 29.81 in 9.0 mi North - - N/A   Scattered Clouds
2:47 PM 41.0 °F - 21.2 °F 45% 29.81 in 9.0 mi North - - N/A   Mostly Cloudy
3:00 PM 42.8 °F - 19.4 °F 39% 29.82 in 9.0 mi North - - N/A   Mostly Cloudy
3:03 PM 42.8 °F - 19.4 °F 39% 29.82 in 9.0 mi North - - N/A   Scattered Clouds
4:00 PM 42.8 °F - 17.6 °F 36% 29.84 in 9.0 mi North - - N/A   Clear
5:00 PM 42.8 °F - 19.4 °F 39% 29.85 in 9.0 mi North - - N/A   Clear
6:00 PM 41.0 °F - 19.4 °F 42% 29.87 in 9.0 mi North - - N/A   Clear
7:00 PM 41.0 °F - 21.2 °F 45% 29.89 in 9.0 mi North - - N/A   Clear
8:00 PM 37.4 °F - 21.2 °F 52% 29.91 in 9.0 mi North - - N/A   Clear
9:00 PM 30.2 °F - 21.2 °F 69% 29.94 in 9.0 mi North - - N/A   Clear
10:00 PM 26.6 °F - 21.2 °F 80% 29.96 in 9.0 mi North - - N/A   Clear
11:00 PM 24.8 °F - 19.4 °F 80% 29.96 in 9.0 mi North - - N/A   Clear